PRAETORIAN SDA_605

Last updated on Sat Jun 27 2026 00:03:47 GMT+0000 (Coordinated Universal Time)

1 65568U 25203D 26177.43769497 .00000058 00000+0 41601-4 0 9992 2 65568 81.3018 2.2022 0008596 158.4111 201.7409 13.83434916 39973
UTC large
Height (km)
Speed (km/s)
/
Latitude / Longitude
Inclination (degrees)
Orbital Period (minutes)
Azimuth
Elevation
Range (km)
Doppler Factor

Next 0 passes for location: London (51.5072 / 0.1276)

No passes found over London.
PRAETORIAN SDA_605